Starlink 30483

operational
NORAD ID: 57914 Int'l Des: 2023-147 Owner: SPXS Country: US Constellation: starlink
LEOCIRCULAR

Starlink 30483について

説明を読み込み中...

リアルタイム位置

3D地球を読み込み中...

次回通過

高度履歴

Altitude vs Time

uPlot chart will show altitude changes over time

軌道要素

1 57914U 23147B 25260.51053631 .00002544 00000-0 10200-3 0 9993
2 57914 43.0044 77.6491 0003047 285.6201 74.4314 15.27566625111826
Epoch: Sep 17, 2025 • Age: 33 hours

現在のステータス

高度 494.5 km
速度 7.62 km/s
衛星直下点 -42.95°S, 23.08°E
打ち上げ日 Sep 24, 2023
運用期間 1.9 years
タイプ internet

技術仕様

分類 Payload
質量 730.00 kg
乾燥質量 700.00 kg
総質量 730.00 kg
長さ 0.30 m
直径 4.10 m
スパン 29.00 m
形状 Box + pan
製造者 SPXS
バスタイプ Starlink V2M
フェーズステータス In Orbit
所有者/国 SPXS/US

大規模コンステレーション

Loading constellations...